SES-3 (37748 NORAD) Tracking and Keplerian Element Data

This shows tracking and keplerian element data for the satellite.

Feedback or suggestion? Click here.




ElementValue
Catalog37748
NameSES-3
Epoch Orbit5279
Epoch Day354.25104625
Epoch Year2025
RAAN85.1029
Inclination0.8638
Eccentricity0.0003234
Argument of Perigee206.9424
Mean Anonmoly144.4189
Mean Motion1.00271608
Decay Rate-7.9E-07
L11 37748U 11035A 25354.25104625 -.00000079 00000+0 00000+0 0 9998
L22 37748 0.8638 85.1029 0003234 206.9424 144.4189 1.00271608 52799



Live tracking and technical data element details for SES-3 (NORAD 37748). SES-3 can be tracked NOW for your location showing map with azimuth and elevation plus other details from your city location.







IsCatalogInMostPopularTable: catalog: 37748, numindb: 439
Update: records affected: 1



GetName: 37748 SES-3

Hit Count: updated at: Mon, 16 Feb 2026 02:11:55 GMT